Wind_Speed
46 44 50 50 52 56 57 58 60 65 69 71 74 73 74 72 74 74 74 73 70 69 69 70 74 75 74 74 74 73 73 73 73 73 74 74 74 74 74 75 76 77 78 78
43 37 41 44 48 52 56 58 59 61 64 66 70 73 75 75 76 79 77 77 74 72 69 71 70 70 72 73 72 73 72 72 70 70 70 70 71 71 72 71 71 71 73 76
45 39 40 37 38 46 51 53 55 58 61 64 66 69 72 75 77 78 76 79 78 77 75 73 73 71 71 71 73 72 71 70 70 70 69 69 69 69 69 70 69 71 73 74
41 44 43 39 40 42 46 48 50 53 56 60 65 68 69 73 76 76 77 78 78 78 78 76 76 74 71 69 70 72 71 70 70 69 68 68 68 69 69 69 70 72 72 72
31 33 37 41 42 42 42 47 48 49 51 54 60 66 67 72 71 71 77 79 79 79 78 78 77 75 74 73 69 69 70 71 69 67 66 66 66 68 68 68 69 68 68 67
30 27 26 31 34 37 39 44 42 46 49 52 56 62 68 69 70 70 72 75 77 78 78 78 77 76 75 74 71 69 66 69 69 67 65 65 65 66 66 65 64 64 64 62
35 31 27 25 27 31 34 38 40 41 46 47 52 56 64 64 65 67 69 70 72 75 77 76 76 75 74 71 71 67 67 66 66 67 65 64 65 65 64 62 62 63 61 60
33 34 32 31 29 27 29 32 34 37 40 45 48 52 55 60 60 62 66 68 68 71 74 74 73 74 73 72 68 68 68 66 65 65 66 66 65 64 62 62 61 60 59 59
35 34 33 32 34 33 29 25 26 28 33 39 43 46 50 55 54 55 60 64 65 66 71 71 68 70 70 69 68 68 67 66 65 63 64 66 66 63 63 62 58 57 56 56
28 30 30 30 29 31 33 30 25 25 25 29 34 41 47 50 52 51 54 59 61 62 65 64 63 67 69 68 67 65 64 65 66 62 61 64 66 63 62 61 58 55 55 48
32 33 26 25 25 22 23 27 29 28 24 23 28 32 38 43 49 51 51 53 55 57 59 58 60 62 65 66 65 65 63 62 65 64 61 61 64 63 61 60 56 54 51 43
32 29 31 27 25 26 23 22 24 23 24 26 23 27 31 35 42 48 49 50 53 55 57 57 55 57 57 58 63 66 67 65 65 65 61 61 63 63 60 57 54 51 46 40
34 33 27 24 23 22 25 25 23 21 20 22 23 23 26 32 35 39 45 49 52 52 53 53 54 55 55 54 60 64 65 66 67 67 63 61 60 61 59 56 53 49 42 37
33 36 34 27 25 23 20 21 24 25 24 20 22 24 25 27 31 32 36 43 47 50 52 53 54 55 56 55 56 60 64 66 69 69 64 62 60 60 57 55 52 48 41 36
34 35 35 34 31 26 27 26 23 25 26 27 26 24 24 26 28 30 31 36 40 44 48 51 52 54 55 56 58 57 58 64 69 70 66 63 61 60 57 55 52 48 43 37
37 39 40 38 35 30 26 25 26 24 26 27 28 26 25 25 27 28 30 30 34 39 44 48 52 52 53 56 57 57 57 60 65 67 65 64 62 60 59 56 52 49 46 40
40 43 44 41 36 31 27 24 23 24 24 27 27 28 28 26 27 27 29 30 29 33 39 43 47 50 53 55 56 58 58 57 62 62 63 64 62 61 60 58 54 50 48 44
42 44 44 43 42 40 36 32 27 25 24 25 26 27 27 28 29 29 30 31 32 32 35 40 42 45 49 52 55 57 58 58 58 59 60 63 63 62 62 60 56 53 52 49
47 46 40 37 37 37 38 37 35 30 27 26 27 26 28 29 30 31 32 33 34 36 36 37 40 45 48 50 53 53 55 60 60 58 61 62 63 63 62 62 59 56 55 52
45 44 43 41 40 39 38 36 35 34 33 29 27 27 28 29 31 32 33 35 36 38 39 40 40 41 45 48 51 53 55 56 59 60 63 64 64 64 63 63 61 59 58 56
47 46 44 42 41 40 39 38 36 35 34 33 31 28 28 30 31 33 34 36 36 38 39 41 43 43 43 45 49 52 55 56 58 59 63 65 65 66 66 65 63 62 61 60
47 46 45 44 42 40 40 38 36 35 34 33 33 30 29 29 32 33 35 36 38 38 39 41 43 46 45 45 47 49 52 55 57 58 62 65 66 67 67 67 66 65 64 64
47 46 46 45 43 41 40 38 36 34 32 33 33 32 31 29 30 34 35 38 38 39 40 40 41 44 46 46 47 47 48 51 55 57 58 62 65 67 69 68 68 68 67 67
48 46 44 43 41 39 38 37 36 35 34 33 31 29 29 29 30 33 34 36 38 40 39 40 41 42 44 46 47 48 47 48 50 55 58 60 62 64 67 68 70 70 71 70
46 46 45 43 41 39 37 35 34 33 34 33 30 29 28 28 29 31 33 34 35 39 40 40 41 42 43 44 47 48 49 49 50 51 54 58 60 62 64 66 67 68 70 71
46 45 45 43 41 39 36 34 33 32 31 30 28 26 26 24 25 27 29 32 34 36 39 40 41 42 43 45 46 48 49 51 52 54 55 56 58 60 61 63 64 67 68 68
47 45 43 42 40 39 38 36 34 32 30 26 23 21 20 20 21 24 26 28 30 33 35 37 40 42 43 44 45 47 49 49 51 53 55 57 58 60 62 63 64 65 66 67
Wind_Direction
289 279 271 267 262 258 255 251 248 247 243 242 242 240 239 237 237 238 241 241 243 245 245 245 246 245 243 244 245 245 246 246 246 248 249 250 251 251 252 253 254 255 255 256
294 283 274 267 262 257 254 253 249 246 247 245 243 242 242 239 237 237 238 238 241 242 243 243 244 246 246 245 244 244 245 247 247 247 248 249 250 251 252 252 253 254 254 255
300 295 288 278 272 268 262 257 255 253 250 249 246 244 242 242 241 240 238 238 240 241 242 242 242 245 247 246 245 245 245 246 247 247 248 249 250 251 251 252 253 254 255 257
295 294 292 287 281 276 270 264 256 253 251 252 252 250 245 243 241 242 242 242 242 243 244 244 243 244 244 245 246 246 245 244 245 246 247 249 250 251 251 252 253 254 255 257
297 284 283 278 279 278 274 265 258 255 252 249 248 248 246 246 244 242 242 243 243 243 243 244 243 244 243 242 243 245 246 245 245 245 246 248 249 250 250 251 253 254 256 259
316 303 285 278 274 271 268 267 259 257 254 248 244 245 245 242 243 242 241 241 243 244 243 242 241 242 242 242 241 240 243 245 246 246 247 248 248 248 249 250 252 254 257 261
322 318 308 292 278 270 268 266 261 253 250 246 246 245 247 243 241 241 242 241 241 241 243 242 242 242 241 240 240 239 240 242 243 244 245 246 247 248 249 250 252 255 259 262
328 322 316 310 300 285 273 267 262 257 251 247 245 245 245 246 243 241 241 240 239 239 240 240 240 239 239 238 237 237 239 239 240 242 242 243 245 246 249 251 253 256 259 262
334 328 315 307 305 299 290 282 269 260 256 250 245 245 246 247 245 241 241 240 238 236 237 238 237 238 238 238 236 235 236 238 239 240 241 241 243 245 247 250 253 257 260 264
333 325 314 305 302 299 298 293 285 276 268 260 252 245 241 243 246 242 239 240 238 236 237 236 235 235 235 234 234 233 232 235 238 239 240 240 241 243 246 249 252 255 258 263
333 329 310 295 296 295 288 290 293 293 281 267 262 253 246 242 244 244 241 240 239 238 237 236 234 235 234 231 230 229 228 230 236 236 237 238 239 241 243 246 248 252 257 262
327 328 327 321 311 301 293 285 288 288 285 284 271 262 256 247 243 243 241 239 239 236 235 236 233 234 233 232 230 228 226 224 230 232 232 236 237 238 240 243 246 249 254 258
324 326 329 325 319 307 304 296 287 289 289 285 284 271 260 254 246 244 243 240 239 239 237 234 234 231 232 230 229 228 226 223 226 230 230 232 233 235 236 240 243 246 249 251
323 324 327 329 322 304 293 296 294 289 286 287 286 278 266 257 250 247 245 243 239 238 236 234 233 232 231 229 229 228 226 225 225 228 229 231 232 233 233 237 241 243 245 245
320 322 326 327 326 318 310 304 297 292 285 283 280 278 271 260 251 248 244 245 243 238 236 233 232 232 232 230 230 229 228 227 228 229 227 228 231 232 232 234 238 241 243 240
321 324 325 325 322 312 305 298 296 289 288 283 279 273 270 264 257 250 241 240 245 242 235 233 232 231 232 231 232 230 230 229 229 229 226 227 230 231 231 231 234 237 241 239
322 323 323 321 317 311 304 299 294 287 281 279 277 274 268 264 258 251 244 238 234 243 239 233 230 229 229 230 231 231 230 230 232 231 227 226 227 230 230 230 231 233 236 238
320 321 320 318 314 312 309 305 299 294 287 279 273 272 269 265 259 254 248 242 236 230 236 236 230 230 230 230 230 229 229 231 233 232 228 226 226 227 229 230 230 230 233 235
319 319 318 314 309 306 304 303 301 298 291 285 276 270 267 265 261 257 252 247 242 238 231 232 235 231 229 230 230 229 229 229 232 230 228 228 227 227 226 228 230 230 230 232
321 320 316 314 310 307 304 301 298 295 293 288 279 268 264 260 259 257 254 249 246 242 239 234 231 235 235 232 229 231 230 229 230 229 228 227 228 228 228 227 228 230 230 230
320 318 316 313 311 307 304 301 296 292 289 286 283 274 264 261 256 257 255 253 249 245 242 240 235 232 234 236 234 232 230 229 230 230 228 228 230 229 229 227 226 228 229 230
320 318 316 313 311 308 305 302 298 294 288 284 281 278 270 262 258 254 253 252 249 247 244 241 239 236 233 233 237 237 235 231 228 226 228 229 230 231 230 229 228 227 228 229
321 319 317 315 313 311 307 304 301 296 290 285 283 281 276 267 259 255 250 250 249 248 246 243 241 239 237 234 232 235 238 235 231 228 228 229 230 231 232 233 232 231 230 229
322 321 321 319 317 314 311 309 307 302 297 293 290 283 277 270 263 257 253 248 246 246 246 245 242 241 239 237 235 232 232 233 234 233 230 229 231 232 234 234 234 234 233 233
325 324 324 323 321 318 316 312 307 303 299 296 295 289 281 274 266 259 254 251 245 244 244 244 243 241 241 240 237 236 234 232 231 232 233 233 233 234 235 236 237 238 238 237
328 327 325 325 323 320 317 315 311 307 302 301 297 289 282 274 265 260 256 253 250 245 243 243 243 243 242 241 240 239 238 238 236 232 232 233 234 236 237 238 239 240 241 241
329 327 327 327 326 324 321 319 315 312 310 308 302 295 286 277 270 265 261 255 252 249 245 243 243 243 243 243 242 241 241 241 240 238 237 235 234 234 236 237 239 240 241 242
Height
10131 10130 10126 10128 10130 10130 10131 10135 10139 10141 10146 10153 10157 10165 10171 10180 10183 10188 10191 10197 10205 10212 10217 10222 10226 10231 10238 10244 10250 10257 10263 10269 10277 10283 10288 10293 10298 10303 10308 10312 10316 10321 10325 10327
10110 10109 10107 10108 10108 10110 10112 10114 10117 10121 10125 10131 10136 10142 10147 10155 10161 10165 10170 10178 10185 10191 10196 10200 10206 10212 10217 10225 10232 10237 10243 10249 10256 10263 10269 10275 10281 10286 10289 10293 10298 10301 10304 10307
10093 10090 10089 10089 10093 10093 10093 10096 10099 10103 10109 10111 10115 10119 10125 10130 10136 10143 10151 10158 10163 10169 10173 10180 10187 10193 10198 10206 10211 10219 10225 10232 10238 10245 10252 10258 10263 10267 10271 10275 10280 10282 10284 10288
10081 10075 10072 10073 10072 10072 10073 10075 10077 10083 10090 10094 10096 10098 10105 10107 10114 10121 10130 10136 10143 10148 10154 10160 10166 10173 10179 10186 10192 10199 10206 10214 10220 10228 10236 10240 10246 10249 10253 10258 10261 10263 10267 10269
10072 10067 10063 10060 10059 10058 10058 10056 10059 10061 10065 10071 10075 10075 10082 10084 10093 10103 10107 10111 10119 10127 10133 10139 10146 10153 10159 10166 10173 10180 10188 10194 10201 10210 10219 10224 10228 10231 10235 10239 10243 10246 10248 10250
10061 10057 10053 10049 10047 10045 10042 10039 10044 10044 10046 10048 10051 10054 10055 10064 10071 10079 10086 10091 10097 10104 10111 10117 10123 10130 10137 10146 10154 10160 10170 10175 10183 10191 10199 10205 10209 10213 10217 10221 10226 10228 10231 10233
10052 10046 10042 10039 10036 10032 10030 10029 10029 10030 10029 10030 10032 10036 10036 10044 10051 10058 10063 10069 10076 10082 10086 10092 10101 10109 10117 10127 10133 10146 10149 10158 10166 10174 10181 10187 10191 10195 10200 10206 10209 10212 10215 10217
10046 10039 10034 10028 10025 10022 10019 10016 10016 10016 10016 10015 10016 10018 10020 10022 10029 10037 10042 10047 10054 10061 10065 10070 10078 10086 10094 10102 10116 10125 10132 10140 10147 10155 10162 10168 10173 10178 10184 10189 10194 10196 10198 10200
10040 10034 10027 10021 10015 10010 10007 10005 10004 10003 10002 10001 10001 10003 10005 10005 10011 10018 10022 10026 10032 10039 10042 10048 10060 10067 10074 10083 10095 10104 10114 10121 10129 10137 10144 10150 10155 10162 10168 10173 10179 10182 10183 10185
10038 10031 10023 10015 10010 10004 9997 9994 9994 9992 9990 9988 9988 9988 9988 9990 9994 10000 10004 10008 10014 10020 10024 10033 10042 10046 10052 10064 10074 10084 10094 10104 10111 10121 10127 10132 10137 10145 10153 10157 10163 10167 10168 10173
10029 10022 10016 10011 10004 9999 9994 9988 9983 9980 9979 9978 9976 9976 9975 9977 9979 9983 9989 9993 9999 10004 10009 10017 10026 10030 10035 10044 10055 10064 10075 10085 10093 10102 10109 10114 10120 10129 10137 10142 10148 10152 10154 10159
10022 10018 10008 10000 9994 9989 9985 9981 9977 9973 9969 9966 9965 9964 9964 9964 9965 9968 9973 9979 9983 9987 9993 10000 10008 10014 10020 10028 10038 10046 10055 10064 10073 10082 10091 10097 10104 10112 10121 10127 10132 10137 10141 10144
10012 10007 10003 9996 9989 9982 9976 9971 9968 9965 9961 9957 9954 9952 9952 9953 9953 9956 9960 9964 9968 9973 9980 9986 9993 9997 10003 10012 10019 10028 10038 10047 10054 10063 10072 10079 10087 10096 10106 10111 10117 10121 10127 10131
10005 9997 9991 9987 9979 9974 9971 9965 9960 9956 9953 9950 9947 9944 9942 9942 9942 9944 9946 9950 9955 9960 9965 9971 9977 9982 9988 9996 10004 10010 10020 10030 10037 10045 10055 10062 10069 10078 10089 10095 10102 10106 10113 10117
9996 9991 9984 9977 9971 9966 9960 9956 9952 9947 9944 9942 9940 9937 9935 9933 9932 9933 9934 9937 9942 9947 9951 9956 9963 9968 9975 9981 9987 9995 10004 10012 10020 10028 10039 10046 10053 10061 10071 10079 10086 10091 10097 10103
9986 9979 9972 9966 9961 9958 9954 9949 9944 9940 9935 9933 9931 9929 9927 9926 9924 9924 9924 9926 9930 9934 9939 9943 9948 9954 9960 9967 9973 9980 9988 9995 10003 10012 10023 10031 10037 10045 10053 10063 10071 10077 10081 10088
9976 9969 9961 9956 9952 9948 9943 9939 9935 9931 9928 9925 9922 9920 9919 9918 9916 9915 9915 9916 9918 9923 9927 9931 9935 9939 9945 9951 9958 9965 9972 9980 9986 9995 10006 10016 10023 10030 10037 10046 10055 10062 10067 10073
9968 9962 9955 9947 9939 9934 9930 9927 9924 9921 9918 9916 9913 9910 9909 9908 9908 9907 9906 9907 9908 9910 9915 9920 9923 9927 9931 9936 9942 9949 9957 9964 9971 9980 9990 10000 10008 10015 10021 10028 10038 10046 10053 10058
9958 9951 9946 9940 9933 9927 9921 9916 9912 9909 9907 9905 9903 9901 9899 9897 9897 9898 9898 9897 9898 9900 9902 9906 9911 9914 9917 9922 9928 9935 9941 9947 9954 9963 9972 9982 9991 9999 10006 10012 10019 10029 10037 10043
9947 9940 9933 9927 9921 9915 9910 9905 9901 9897 9894 9893 9891 9890 9889 9887 9885 9885 9886 9887 9888 9889 9891 9894 9897 9902 9906 9910 9914 9920 9927 9932 9938 9946 9955 9963 9972 9982 9990 9998 10004 10011 10020 10028
9935 9928 9920 9914 9908 9902 9897 9893 9889 9885 9881 9879 9877 9876 9876 9875 9875 9873 9873 9874 9876 9877 9879 9881 9885 9888 9893 9898 9902 9906 9912 9918 9923 9931 9938 9945 9954 9962 9971 9980 9987 9994 10002 10009
9924 9916 9908 9901 9895 9889 9883 9879 9875 9871 9868 9865 9863 9862 9862 9862 9862 9862 9861 9861 9862 9864 9866 9868 9871 9875 9878 9883 9888 9893 9897 9903 9908 9914 9921 9929 9936 9943 9951 9960 9968 9976 9984 9990
9913 9906 9897 9889 9882 9876 9870 9865 9861 9858 9855 9852 9850 9848 9847 9848 9848 9848 9848 9849 9850 9851 9853 9855 9859 9862 9865 9868 9873 9879 9884 9890 9895 9901 9906 9913 9920 9926 9933 9941 9949 9956 9963 9971
9902 9894 9887 9879 9871 9865 9859 9853 9848 9843 9840 9838 9837 9835 9833 9833 9834 9834 9835 9836 9837 9838 9840 9843 9846 9848 9851 9856 9860 9864 9869 9875 9880 9886 9891 9897 9904 9911 9917 9923 9929 9937 9944 9951
9891 9882 9874 9866 9860 9853 9848 9842 9837 9833 9828 9825 9823 9821 9820 9820 9819 9819 9820 9822 9824 9825 9827 9830 9833 9836 9839 9842 9846 9850 9854 9859 9864 9870 9876 9882 9888 9894 9900 9906 9912 9919 9926 9932
9881 9873 9864 9856 9849 9842 9836 9831 9826 9822 9818 9814 9811 9809 9807 9806 9806 9807 9808 9809 9811 9813 9815 9817 9820 9823 9826 9829 9832 9836 9840 9844 9849 9853 9859 9865 9871 9877 9883 9888 9894 9900 9906 9912
9870 9862 9855 9847 9840 9832 9825 9820 9815 9811 9806 9803 9800 9798 9796 9796 9795 9796 9797 9798 9799 9800 9803 9805 9807 9809 9812 9815 9818 9822 9826 9829 9834 9838 9843 9847 9852 9858 9864 9869 9875 9880 9886 9891